Time,TemperatureF,DewpointF,PressureIn,WindDirection,WindDirectionDegrees,WindSpeedMPH,WindSpeedGustMPH,Humidity,HourlyPrecipIn,Conditions,Clouds,dailyrainin,SolarRadiationWatts/m^2,SoftwareType,DateUTC
2013-07-24 00:01:00,60.0,58.6,29.09,NW,315,3.0,3.0,95,0.00,,---,0.00,0.00,VWS V14.01,2013-07-24 04:01:00,
2013-07-24 00:02:00,60.0,58.3,29.09,NNE,22,0.0,0.0,94,0.00,,---,0.00,0.00,VWS V14.01,2013-07-24 04:02:00,
2013-07-24 00:07:00,60.0,58.3,29.09,NW,315,0.0,0.0,94,0.00,,---,0.00,0.00,VWS V14.01,2013-07-24 04:07:00,
2013-07-24 00:12:00,60.0,58.0,29.09,North,360,0.0,0.0,93,0.00,,---,0.00,0.00,VWS V14.01,2013-07-24 04:12:00,
2013-07-24 00:17:00,60.0,58.3,29.09,SE,135,0.0,1.0,94,0.00,,---,0.00,0.00,VWS V14.01,2013-07-24 04:17:00,
2013-07-24 00:22:00,60.0,58.6,29.10,NW,315,0.0,0.0,95,0.00,,---,0.00,0.00,VWS V14.01,2013-07-24 04:22:00,
2013-07-24 00:27:00,60.0,58.3,29.10,South,180,0.0,0.0,94,0.00,,---,0.00,0.00,VWS V14.01,2013-07-24 04:27:00,
2013-07-24 00:32:00,60.0,59.4,29.10,North,360,0.0,4.0,98,0.00,,---,0.00,0.00,VWS V14.01,2013-07-24 04:32:00,
2013-07-24 00:37:00,60.0,58.6,29.09,North,360,0.0,0.0,95,0.00,,---,0.00,0.00,VWS V14.01,2013-07-24 04:37:00,
2013-07-24 00:42:00,60.0,58.3,29.09,NW,315,0.0,4.0,94,0.00,,---,0.00,0.00,VWS V14.01,2013-07-24 04:42:00,
2013-07-24 00:47:00,60.0,57.7,29.09,NNW,337,0.0,0.0,92,0.00,,---,0.00,0.00,VWS V14.01,2013-07-24 04:47:00,
2013-07-24 00:52:00,60.0,57.7,29.09,West,270,1.0,4.0,92,0.00,,---,0.00,0.00,VWS V14.01,2013-07-24 04:52:00,
2013-07-24 00:57:00,60.0,57.4,29.11,WNW,292,0.0,2.0,91,0.00,,---,0.00,0.00,VWS V14.01,2013-07-24 04:57:00,
2013-07-24 01:02:00,59.0,56.1,29.11,SE,135,0.0,1.0,90,0.00,,---,0.00,0.00,VWS V14.01,2013-07-24 05:02:00,
2013-07-24 01:07:00,59.0,56.7,29.10,North,360,0.0,4.0,92,0.00,,---,0.00,0.00,VWS V14.01,2013-07-24 05:07:00,
2013-07-24 01:12:00,59.0,57.3,29.10,NW,315,0.0,3.0,94,0.00,,---,0.00,0.00,VWS V14.01,2013-07-24 05:12:00,
2013-07-24 01:18:00,59.0,57.3,29.10,West,270,0.0,0.0,94,0.00,,---,0.00,0.00,VWS V14.01,2013-07-24 05:18:00,
2013-07-24 01:23:00,58.0,56.3,29.10,WNW,292,0.0,1.0,94,0.00,,---,0.00,0.00,VWS V14.01,2013-07-24 05:23:00,
2013-07-24 01:28:00,59.0,58.2,29.10,SE,135,0.0,1.0,97,0.00,,---,0.00,0.00,VWS V14.01,2013-07-24 05:28:00,
2013-07-24 01:33:00,58.0,57.2,29.10,WNW,292,0.0,3.0,97,0.00,,---,0.00,0.00,VWS V14.01,2013-07-24 05:33:00,
2013-07-24 01:38:00,58.0,56.6,29.10,North,360,0.0,2.0,95,0.00,,---,0.00,0.00,VWS V14.01,2013-07-24 05:38:00,
2013-07-24 01:43:00,58.0,57.4,29.10,NW,315,0.0,0.0,98,0.00,,---,0.00,0.00,VWS V14.01,2013-07-24 05:43:00,
2013-07-24 01:48:00,58.0,56.9,29.10,NE,45,0.0,0.0,96,0.00,,---,0.00,0.00,VWS V14.01,2013-07-24 05:48:00,
2013-07-24 01:53:00,57.0,57.0,29.10,NW,315,2.0,4.0,100,0.00,,---,0.00,0.00,VWS V14.01,2013-07-24 05:53:00,
2013-07-24 01:58:00,58.0,58.0,29.10,NW,315,0.0,2.0,100,0.00,,---,0.00,0.00,VWS V14.01,2013-07-24 05:58:00,
2013-07-24 02:03:00,57.0,57.0,29.10,NNW,337,0.0,0.0,100,0.00,,---,0.00,0.00,VWS V14.01,2013-07-24 06:03:00,
2013-07-24 02:08:00,57.0,56.7,29.10,West,270,0.0,0.0,99,0.00,,---,0.00,0.00,VWS V14.01,2013-07-24 06:08:00,
2013-07-24 02:13:00,57.0,57.0,29.10,NW,315,0.0,2.0,100,0.00,,---,0.00,0.00,VWS V14.01,2013-07-24 06:13:00,
2013-07-24 02:18:00,57.0,57.0,29.09,NW,315,0.0,0.0,100,0.00,,---,0.00,0.00,VWS V14.01,2013-07-24 06:18:00,
2013-07-24 02:23:00,57.0,57.0,29.09,WNW,292,0.0,2.0,100,0.00,,---,0.00,0.00,VWS V14.01,2013-07-24 06:23:00,
2013-07-24 02:28:00,57.0,57.0,29.09,NW,315,0.0,3.0,100,0.00,,---,0.00,0.00,VWS V14.01,2013-07-24 06:28:00,
2013-07-24 02:33:00,57.0,57.0,29.09,NW,315,2.0,4.0,100,0.00,,---,0.00,0.00,VWS V14.01,2013-07-24 06:33:00,
2013-07-24 02:38:00,57.0,57.0,29.09,NW,315,0.0,2.0,100,0.00,,---,0.00,0.00,VWS V14.01,2013-07-24 06:38:00,
2013-07-24 02:43:00,57.0,57.0,29.09,NW,315,0.0,0.0,100,0.00,,---,0.00,0.00,VWS V14.01,2013-07-24 06:43:00,
2013-07-24 02:48:00,57.0,57.0,29.11,NW,315,0.0,0.0,100,0.00,,---,0.00,0.00,VWS V14.01,2013-07-24 06:48:00,
2013-07-24 02:53:00,56.0,56.0,29.11,NW,315,0.0,0.0,100,0.00,,---,0.00,0.00,VWS V14.01,2013-07-24 06:53:00,
2013-07-24 02:58:00,57.0,57.0,29.11,West,270,0.0,0.0,100,0.00,,---,0.00,0.00,VWS V14.01,2013-07-24 06:58:00,
2013-07-24 03:03:00,56.0,56.0,29.11,NW,315,0.0,0.0,100,0.00,,---,0.00,0.00,VWS V14.01,2013-07-24 07:03:00,
2013-07-24 03:08:00,56.0,56.0,29.11,NW,315,0.0,0.0,100,0.00,,---,0.00,0.00,VWS V14.01,2013-07-24 07:08:00,
2013-07-24 03:13:00,56.0,56.0,29.11,SSW,202,0.0,0.0,100,0.00,,---,0.00,0.00,VWS V14.01,2013-07-24 07:13:00,
2013-07-24 03:18:00,56.0,56.0,29.11,SW,225,0.0,0.0,100,0.00,,---,0.00,0.00,VWS V14.01,2013-07-24 07:18:00,
2013-07-24 03:23:00,56.0,56.0,29.11,SW,225,0.0,0.0,100,0.00,,---,0.00,0.00,VWS V14.01,2013-07-24 07:23:00,
2013-07-24 03:28:00,56.0,56.0,29.11,NW,315,0.0,0.0,100,0.00,,---,0.00,0.00,VWS V14.01,2013-07-24 07:28:00,
2013-07-24 03:33:00,56.0,56.0,29.11,NW,315,0.0,0.0,100,0.00,,---,0.00,0.00,VWS V14.01,2013-07-24 07:33:00,
2013-07-24 03:38:00,56.0,56.0,29.11,NW,315,0.0,0.0,100,0.00,,---,0.00,0.00,VWS V14.01,2013-07-24 07:38:00,
2013-07-24 03:43:00,56.0,56.0,29.11,NW,315,0.0,0.0,100,0.00,,---,0.00,0.00,VWS V14.01,2013-07-24 07:43:00,
2013-07-24 03:48:00,56.0,56.0,29.12,NW,315,0.0,0.0,100,0.00,,---,0.00,0.00,VWS V14.01,2013-07-24 07:48:00,
2013-07-24 03:53:00,55.0,55.0,29.12,NNW,337,0.0,0.0,100,0.00,,---,0.00,0.00,VWS V14.01,2013-07-24 07:53:00,
2013-07-24 03:58:00,56.0,56.0,29.13,NW,315,0.0,0.0,100,0.00,,---,0.00,0.00,VWS V14.01,2013-07-24 07:58:00,
2013-07-24 04:03:00,55.0,55.0,29.13,NNE,22,0.0,0.0,100,0.00,,---,0.00,0.00,VWS V14.01,2013-07-24 08:03:00,
2013-07-24 04:08:00,56.0,56.0,29.13,NNW,337,0.0,1.0,100,0.00,,---,0.00,0.00,VWS V14.01,2013-07-24 08:08:00,
2013-07-24 04:13:00,55.0,55.0,29.13,NW,315,0.0,1.0,100,0.00,,---,0.00,0.00,VWS V14.01,2013-07-24 08:13:00,
2013-07-24 04:18:00,55.0,55.0,29.13,NW,315,0.0,0.0,100,0.00,,---,0.00,0.00,VWS V14.01,2013-07-24 08:18:00,
2013-07-24 04:23:00,55.0,55.0,29.13,NW,315,0.0,1.0,100,0.00,,---,0.00,0.00,VWS V14.01,2013-07-24 08:23:00,
2013-07-24 04:28:00,55.0,55.0,29.13,WNW,292,0.0,0.0,100,0.00,,---,0.00,0.00,VWS V14.01,2013-07-24 08:28:00,
2013-07-24 04:33:00,55.0,55.0,29.13,WNW,292,0.0,0.0,100,0.00,,---,0.00,0.00,VWS V14.01,2013-07-24 08:33:00,
2013-07-24 04:38:00,55.0,55.0,29.13,SSW,202,0.0,0.0,100,0.00,,---,0.00,0.00,VWS V14.01,2013-07-24 08:38:00,
2013-07-24 04:43:00,55.0,55.0,29.13,NW,315,0.0,0.0,100,0.00,,---,0.00,0.00,VWS V14.01,2013-07-24 08:43:00,
2013-07-24 04:48:00,55.0,55.0,29.14,WNW,292,0.0,0.0,100,0.00,,---,0.00,0.00,VWS V14.01,2013-07-24 08:48:00,
2013-07-24 04:53:00,54.0,54.0,29.14,WNW,292,0.0,0.0,100,0.00,,---,0.00,0.00,VWS V14.01,2013-07-24 08:53:00,
2013-07-24 04:58:00,55.0,55.0,29.15,WNW,292,0.0,0.0,100,0.00,,---,0.00,0.00,VWS V14.01,2013-07-24 08:58:00,
2013-07-24 05:03:00,54.0,54.0,29.15,NW,315,0.0,0.0,100,0.00,,---,0.00,0.00,VWS V14.01,2013-07-24 09:03:00,
2013-07-24 05:08:00,55.0,55.0,29.15,NW,315,0.0,0.0,100,0.00,,---,0.00,0.00,VWS V14.01,2013-07-24 09:08:00,
2013-07-24 05:13:00,54.0,54.0,29.15,NNW,337,0.0,0.0,100,0.00,,---,0.00,0.00,VWS V14.01,2013-07-24 09:13:00,
2013-07-24 05:18:00,55.0,55.0,29.15,NNW,337,0.0,0.0,100,0.00,,---,0.00,0.00,VWS V14.01,2013-07-24 09:18:00,
2013-07-24 05:23:00,54.0,54.0,29.15,NW,315,0.0,0.0,100,0.00,,---,0.00,0.00,VWS V14.01,2013-07-24 09:23:00,
2013-07-24 05:28:00,55.0,55.0,29.15,NW,315,0.0,0.0,100,0.00,,---,0.00,0.00,VWS V14.01,2013-07-24 09:28:00,
2013-07-24 05:33:00,54.0,54.0,29.15,SSW,202,0.0,0.0,100,0.00,,---,0.00,0.00,VWS V14.01,2013-07-24 09:33:00,
2013-07-24 05:38:00,54.0,54.0,29.16,West,270,0.0,0.0,100,0.00,,---,0.00,0.00,VWS V14.01,2013-07-24 09:38:00,
2013-07-24 05:43:00,54.0,54.0,29.16,WNW,292,0.0,0.0,100,0.00,,---,0.00,0.00,VWS V14.01,2013-07-24 09:43:00,
2013-07-24 05:48:00,54.0,54.0,29.15,WNW,292,0.0,0.0,100,0.00,,---,0.00,0.00,VWS V14.01,2013-07-24 09:48:00,
2013-07-24 05:53:00,54.0,54.0,29.15,WNW,292,0.0,0.0,100,0.00,,---,0.00,0.00,VWS V14.01,2013-07-24 09:53:00,
2013-07-24 05:58:00,54.0,54.0,29.16,WNW,292,0.0,0.0,100,0.00,,---,0.00,0.00,VWS V14.01,2013-07-24 09:58:00,
2013-07-24 06:03:00,54.0,54.0,29.16,WNW,292,0.0,0.0,100,0.00,,---,0.00,0.00,VWS V14.01,2013-07-24 10:03:00,
2013-07-24 06:08:00,54.0,54.0,29.16,West,270,0.0,2.0,100,0.00,,---,0.00,0.00,VWS V14.01,2013-07-24 10:08:00,
2013-07-24 06:13:00,54.0,54.0,29.16,West,270,0.0,0.0,100,0.00,,---,0.00,0.00,VWS V14.01,2013-07-24 10:13:00,
2013-07-24 06:18:00,54.0,54.0,29.17,West,270,0.0,0.0,100,0.00,,---,0.00,0.00,VWS V14.01,2013-07-24 10:18:00,
2013-07-24 06:23:00,53.0,53.0,29.17,West,270,0.0,0.0,100,0.00,,---,0.00,0.00,VWS V14.01,2013-07-24 10:23:00,
2013-07-24 06:28:00,54.0,54.0,29.16,West,270,0.0,0.0,100,0.00,,---,0.00,0.00,VWS V14.01,2013-07-24 10:28:00,
2013-07-24 06:33:00,53.0,53.0,29.16,West,270,0.0,0.0,100,0.00,,---,0.00,0.00,VWS V14.01,2013-07-24 10:33:00,
2013-07-24 06:38:00,53.0,53.0,29.17,West,270,0.0,0.0,100,0.00,,---,0.00,0.00,VWS V14.01,2013-07-24 10:38:00,
2013-07-24 06:43:00,53.0,53.0,29.17,West,270,0.0,0.0,100,0.00,,---,0.00,0.00,VWS V14.01,2013-07-24 10:43:00,
2013-07-24 06:48:00,53.0,53.0,29.17,West,270,0.0,0.0,100,0.00,,---,0.00,0.00,VWS V14.01,2013-07-24 10:48:00,
2013-07-24 06:53:00,53.0,53.0,29.17,West,270,0.0,0.0,100,0.00,,---,0.00,0.00,VWS V14.01,2013-07-24 10:53:00,
2013-07-24 06:58:00,53.0,53.0,29.17,SW,225,0.0,0.0,100,0.00,,---,0.00,0.00,VWS V14.01,2013-07-24 10:58:00,
2013-07-24 07:03:00,53.0,53.0,29.17,SW,225,0.0,0.0,100,0.00,,---,0.00,0.00,VWS V14.01,2013-07-24 11:03:00,
2013-07-24 07:08:00,53.0,53.0,29.17,NW,315,0.0,0.0,100,0.00,,---,0.00,0.00,VWS V14.01,2013-07-24 11:08:00,
2013-07-24 07:13:00,53.0,53.0,29.17,NW,315,0.0,0.0,100,0.00,,---,0.00,0.00,VWS V14.01,2013-07-24 11:13:00,
2013-07-24 07:18:00,53.0,53.0,29.17,NW,315,0.0,0.0,100,0.00,,---,0.00,0.00,VWS V14.01,2013-07-24 11:18:00,
2013-07-24 07:23:00,53.0,53.0,29.17,NW,315,0.0,0.0,100,0.00,,---,0.00,0.00,VWS V14.01,2013-07-24 11:23:00,
2013-07-24 07:28:00,54.0,54.0,29.18,NW,315,0.0,0.0,100,0.00,,---,0.00,0.00,VWS V14.01,2013-07-24 11:28:00,
2013-07-24 07:33:00,54.0,54.0,29.18,NW,315,0.0,0.0,100,0.00,,---,0.00,0.00,VWS V14.01,2013-07-24 11:33:00,
2013-07-24 07:38:00,54.0,54.0,29.17,NW,315,0.0,0.0,100,0.00,,---,0.00,0.00,VWS V14.01,2013-07-24 11:38:00,
2013-07-24 07:43:00,55.0,55.0,29.17,WNW,292,0.0,0.0,100,0.00,,---,0.00,0.00,VWS V14.01,2013-07-24 11:43:00,
2013-07-24 07:48:00,55.0,55.0,29.17,NW,315,0.0,0.0,100,0.00,,---,0.00,0.00,VWS V14.01,2013-07-24 11:48:00,
2013-07-24 07:53:00,55.0,55.0,29.17,NW,315,0.0,0.0,100,0.00,,---,0.00,0.00,VWS V14.01,2013-07-24 11:53:00,
2013-07-24 07:58:00,55.0,55.0,29.17,NW,315,0.0,0.0,100,0.00,,---,0.00,0.00,VWS V14.01,2013-07-24 11:58:00,
2013-07-24 08:03:00,55.0,55.0,29.17,NNW,337,0.0,0.0,100,0.00,,---,0.00,0.00,VWS V14.01,2013-07-24 12:03:00,
2013-07-24 08:08:00,55.0,55.0,29.17,NW,315,2.0,2.0,100,0.00,,---,0.00,0.00,VWS V14.01,2013-07-24 12:08:00,
2013-07-24 08:13:00,55.0,54.7,29.17,WNW,292,0.0,3.0,99,0.00,,---,0.00,0.00,VWS V14.01,2013-07-24 12:13:00,
2013-07-24 08:18:00,56.0,54.9,29.17,West,270,2.0,4.0,96,0.00,,---,0.00,0.00,VWS V14.01,2013-07-24 12:18:00,
2013-07-24 08:23:00,57.0,54.4,29.17,WNW,292,3.0,3.0,91,0.00,,---,0.00,0.00,VWS V14.01,2013-07-24 12:23:00,
2013-07-24 08:28:00,57.0,54.7,29.17,North,360,1.0,1.0,92,0.00,,---,0.00,0.00,VWS V14.01,2013-07-24 12:28:00,
2013-07-24 08:33:00,58.0,53.5,29.17,WNW,292,3.0,6.0,85,0.00,,---,0.00,0.00,VWS V14.01,2013-07-24 12:33:00,
2013-07-24 08:38:00,59.0,55.8,29.15,North,360,4.0,4.0,89,0.00,,---,0.00,0.00,VWS V14.01,2013-07-24 12:38:00,
2013-07-24 08:43:00,59.0,55.1,29.15,East,90,0.0,0.0,87,0.00,,---,0.00,0.00,VWS V14.01,2013-07-24 12:43:00,
2013-07-24 08:48:00,60.0,55.8,29.14,North,360,0.0,4.0,86,0.00,,---,0.00,0.00,VWS V14.01,2013-07-24 12:48:00,
2013-07-24 08:53:00,60.0,54.5,29.14,North,360,2.0,3.0,82,0.00,,---,0.00,0.00,VWS V14.01,2013-07-24 12:53:00,
2013-07-24 08:58:00,61.0,55.5,29.14,NW,315,0.0,4.0,82,0.00,,---,0.00,0.00,VWS V14.01,2013-07-24 12:58:00,
2013-07-24 09:03:00,61.0,54.8,29.14,WNW,292,3.0,8.0,80,0.00,,---,0.00,0.00,VWS V14.01,2013-07-24 13:03:00,
2013-07-24 09:08:00,62.0,55.4,29.14,South,180,0.0,2.0,79,0.00,,---,0.00,0.00,VWS V14.01,2013-07-24 13:08:00,
2013-07-24 09:13:00,62.0,54.4,29.14,WNW,292,4.0,7.0,76,0.00,,---,0.00,0.00,VWS V14.01,2013-07-24 13:13:00,
2013-07-24 09:18:00,62.0,54.7,29.14,West,270,2.0,3.0,77,0.00,,---,0.00,0.00,VWS V14.01,2013-07-24 13:18:00,
2013-07-24 09:23:00,62.0,54.0,29.14,East,90,0.0,4.0,75,0.00,,---,0.00,0.00,VWS V14.01,2013-07-24 13:23:00,
2013-07-24 09:28:00,63.0,54.6,29.13,ENE,67,2.0,3.0,74,0.00,,---,0.00,0.00,VWS V14.01,2013-07-24 13:28:00,
2013-07-24 09:34:00,63.0,53.8,29.13,SW,225,1.0,4.0,72,0.00,,---,0.00,0.00,VWS V14.01,2013-07-24 13:34:00,
2013-07-24 09:39:00,63.0,53.8,29.13,ESE,112,0.0,6.0,72,0.00,,---,0.00,0.00,VWS V14.01,2013-07-24 13:39:00,
2013-07-24 09:44:00,64.0,55.2,29.13,North,360,0.0,5.0,73,0.00,,---,0.00,0.00,VWS V14.01,2013-07-24 13:44:00,
2013-07-24 09:49:00,63.0,54.2,29.13,West,270,3.0,6.0,73,0.00,,---,0.00,0.00,VWS V14.01,2013-07-24 13:49:00,
2013-07-24 09:54:00,64.0,55.6,29.13,SSE,157,2.0,4.0,74,0.00,,---,0.00,0.00,VWS V14.01,2013-07-24 13:54:00,
2013-07-24 09:59:00,64.0,55.2,29.13,West,270,2.0,3.0,73,0.00,,---,0.00,0.00,VWS V14.01,2013-07-24 13:59:00,
2013-07-24 10:04:00,65.0,55.8,29.13,SSE,157,0.0,5.0,72,0.00,,---,0.00,0.00,VWS V14.01,2013-07-24 14:04:00,
2013-07-24 10:09:00,65.0,54.6,29.13,ESE,112,3.0,7.0,69,0.00,,---,0.00,0.00,VWS V14.01,2013-07-24 14:09:00,
2013-07-24 10:14:00,64.0,54.0,29.13,NNE,22,3.0,6.0,70,0.00,,---,0.00,0.00,VWS V14.01,2013-07-24 14:14:00,
2013-07-24 10:19:00,64.0,55.2,29.13,ENE,67,4.0,7.0,73,0.00,,---,0.00,0.00,VWS V14.01,2013-07-24 14:19:00,
2013-07-24 10:24:00,64.0,54.0,29.13,ENE,67,1.0,6.0,70,0.00,,---,0.00,0.00,VWS V14.01,2013-07-24 14:24:00,
2013-07-24 10:29:00,65.0,56.2,29.13,North,360,0.0,4.0,73,0.00,,---,0.00,0.00,VWS V14.01,2013-07-24 14:29:00,
2013-07-24 10:34:00,65.0,55.0,29.13,East,90,0.0,4.0,70,0.00,,---,0.00,0.00,VWS V14.01,2013-07-24 14:34:00,
2013-07-24 10:39:00,66.0,55.2,29.13,East,90,11.0,11.0,68,0.00,,---,0.00,0.00,VWS V14.01,2013-07-24 14:39:00,
2013-07-24 10:44:00,66.0,55.5,29.13,WNW,292,0.0,6.0,69,0.00,,---,0.00,0.00,VWS V14.01,2013-07-24 14:44:00,
2013-07-24 10:49:00,66.0,54.7,29.13,ENE,67,4.0,10.0,67,0.00,,---,0.00,0.00,VWS V14.01,2013-07-24 14:49:00,
2013-07-24 10:54:00,66.0,54.7,29.13,East,90,0.0,0.0,67,0.00,,---,0.00,0.00,VWS V14.01,2013-07-24 14:54:00,
2013-07-24 10:59:00,66.0,56.0,29.13,East,90,3.0,4.0,70,0.00,,---,0.00,0.00,VWS V14.01,2013-07-24 14:59:00,
2013-07-24 11:04:00,66.0,55.5,29.13,East,90,4.0,7.0,69,0.00,,---,0.00,0.00,VWS V14.01,2013-07-24 15:04:00,
2013-07-24 11:09:00,66.0,55.5,29.13,WNW,292,0.0,2.0,69,0.00,,---,0.00,0.00,VWS V14.01,2013-07-24 15:09:00,
2013-07-24 11:14:00,66.0,55.5,29.13,East,90,3.0,4.0,69,0.00,,---,0.00,0.00,VWS V14.01,2013-07-24 15:14:00,
2013-07-24 11:19:00,67.0,55.7,29.13,NE,45,3.0,5.0,67,0.00,,---,0.00,0.00,VWS V14.01,2013-07-24 15:19:00,
2013-07-24 11:24:00,67.0,56.5,29.13,NW,315,0.0,4.0,69,0.00,,---,0.00,0.00,VWS V14.01,2013-07-24 15:24:00,
2013-07-24 11:29:00,67.0,55.3,29.13,East,90,1.0,5.0,66,0.00,,---,0.00,0.00,VWS V14.01,2013-07-24 15:29:00,
2013-07-24 11:34:00,68.0,57.1,29.13,SSE,157,0.0,5.0,68,0.00,,---,0.00,0.00,VWS V14.01,2013-07-24 15:34:00,
2013-07-24 11:39:00,68.0,56.7,29.12,East,90,0.0,4.0,67,0.00,,---,0.00,0.00,VWS V14.01,2013-07-24 15:39:00,
2013-07-24 11:45:00,70.0,58.5,29.12,SE,135,2.0,3.0,67,0.00,,---,0.00,0.00,VWS V14.01,2013-07-24 15:45:00,
2013-07-24 11:50:00,69.0,56.3,29.12,South,180,1.0,5.0,64,0.00,,---,0.00,0.00,VWS V14.01,2013-07-24 15:50:00,
2013-07-24 11:55:00,69.0,57.2,29.12,East,90,4.0,4.0,66,0.00,,---,0.00,0.00,VWS V14.01,2013-07-24 15:55:00,
2013-07-24 12:00:00,69.0,56.8,29.13,SW,225,3.0,3.0,65,0.00,,---,0.00,0.00,VWS V14.01,2013-07-24 16:00:00,
2013-07-24 12:05:00,68.0,56.7,29.13,East,90,0.0,6.0,67,0.00,,---,0.00,0.00,VWS V14.01,2013-07-24 16:05:00,
2013-07-24 12:10:00,68.0,57.1,29.13,NW,315,0.0,5.0,68,0.00,,---,0.00,0.00,VWS V14.01,2013-07-24 16:10:00,
2013-07-24 12:15:00,68.0,57.1,29.13,SE,135,2.0,5.0,68,0.00,,---,0.00,0.00,VWS V14.01,2013-07-24 16:15:00,
2013-07-24 12:20:00,68.0,57.1,29.13,WNW,292,3.0,3.0,68,0.00,,---,0.00,0.00,VWS V14.01,2013-07-24 16:20:00,
2013-07-24 12:25:00,69.0,57.2,29.13,East,90,4.0,7.0,66,0.00,,---,0.00,0.00,VWS V14.01,2013-07-24 16:25:00,
2013-07-24 12:30:00,70.0,57.3,29.13,SSW,202,0.0,5.0,64,0.00,,---,0.00,0.00,VWS V14.01,2013-07-24 16:30:00,
2013-07-24 12:35:00,71.0,58.2,29.13,NNW,337,0.0,3.0,64,0.00,,---,0.00,0.00,VWS V14.01,2013-07-24 16:35:00,
2013-07-24 12:40:00,71.0,57.3,29.13,WNW,292,3.0,6.0,62,0.00,,---,0.00,0.00,VWS V14.01,2013-07-24 16:40:00,
2013-07-24 12:45:00,71.0,57.8,29.13,SE,135,0.0,0.0,63,0.00,,---,0.00,0.00,VWS V14.01,2013-07-24 16:45:00,
2013-07-24 12:50:00,71.0,56.9,29.12,NE,45,0.0,7.0,61,0.00,,---,0.00,0.00,VWS V14.01,2013-07-24 16:50:00,
2013-07-24 12:55:00,70.0,55.5,29.12,ESE,112,4.0,6.0,60,0.00,,---,0.00,0.00,VWS V14.01,2013-07-24 16:55:00,
2013-07-24 13:00:00,70.0,56.4,29.13,SE,135,3.0,11.0,62,0.00,,---,0.00,0.00,VWS V14.01,2013-07-24 17:00:00,
2013-07-24 13:05:00,71.0,56.4,29.13,NNE,22,1.0,7.0,60,0.00,,---,0.00,0.00,VWS V14.01,2013-07-24 17:05:00,
2013-07-24 13:10:00,71.0,56.4,29.12,West,270,0.0,9.0,60,0.00,,---,0.00,0.00,VWS V14.01,2013-07-24 17:10:00,
2013-07-24 13:15:00,71.0,56.4,29.12,NW,315,0.0,3.0,60,0.00,,---,0.00,0.00,VWS V14.01,2013-07-24 17:15:00,
2013-07-24 13:20:00,70.0,56.4,29.12,North,360,2.0,5.0,62,0.00,,---,0.00,0.00,VWS V14.01,2013-07-24 17:20:00,
2013-07-24 13:25:00,71.0,57.8,29.12,WNW,292,10.0,10.0,63,0.00,,---,0.00,0.00,VWS V14.01,2013-07-24 17:25:00,
2013-07-24 13:30:00,71.0,58.2,29.12,ENE,67,7.0,7.0,64,0.00,,---,0.00,0.00,VWS V14.01,2013-07-24 17:30:00,
2013-07-24 13:35:00,71.0,56.9,29.12,WNW,292,3.0,7.0,61,0.00,,---,0.00,0.00,VWS V14.01,2013-07-24 17:35:00,
2013-07-24 13:40:00,71.0,56.4,29.12,ENE,67,4.0,4.0,60,0.00,,---,0.00,0.00,VWS V14.01,2013-07-24 17:40:00,
2013-07-24 13:45:00,71.0,56.9,29.12,East,90,5.0,6.0,61,0.00,,---,0.00,0.00,VWS V14.01,2013-07-24 17:45:00,
2013-07-24 13:50:00,70.0,58.1,29.12,ESE,112,4.0,4.0,66,0.00,,---,0.00,0.00,VWS V14.01,2013-07-24 17:50:00,
2013-07-24 13:55:00,71.0,56.4,29.12,North,360,4.0,8.0,60,0.00,,---,0.00,0.00,VWS V14.01,2013-07-24 17:55:00,
2013-07-24 14:00:00,71.0,57.3,29.12,NE,45,0.0,3.0,62,0.00,,---,0.00,0.00,VWS V14.01,2013-07-24 18:00:00,
2013-07-24 14:05:00,72.0,57.8,29.12,NNW,337,0.0,7.0,61,0.00,,---,0.00,0.00,VWS V14.01,2013-07-24 18:05:00,
2013-07-24 14:10:00,72.0,59.2,29.12,ESE,112,0.0,3.0,64,0.00,,---,0.00,0.00,VWS V14.01,2013-07-24 18:10:00,
2013-07-24 14:15:00,71.0,56.4,29.12,ENE,67,5.0,5.0,60,0.00,,---,0.00,0.00,VWS V14.01,2013-07-24 18:15:00,
2013-07-24 14:20:00,72.0,57.4,29.12,SW,225,2.0,5.0,60,0.00,,---,0.00,0.00,VWS V14.01,2013-07-24 18:20:00,
2013-07-24 14:25:00,71.0,56.0,29.12,East,90,4.0,4.0,59,0.00,,---,0.00,0.00,VWS V14.01,2013-07-24 18:25:00,
2013-07-24 14:30:00,71.0,56.0,29.11,East,90,2.0,3.0,59,0.00,,---,0.00,0.00,VWS V14.01,2013-07-24 18:30:00,
2013-07-24 14:35:00,71.0,57.3,29.11,East,90,0.0,4.0,62,0.00,,---,0.00,0.00,VWS V14.01,2013-07-24 18:35:00,
2013-07-24 14:40:00,71.0,56.4,29.12,East,90,0.0,4.0,60,0.00,,---,0.00,0.00,VWS V14.01,2013-07-24 18:40:00,
2013-07-24 14:45:00,72.0,56.4,29.12,East,90,4.0,7.0,58,0.00,,---,0.00,0.00,VWS V14.01,2013-07-24 18:45:00,
2013-07-24 14:51:00,72.0,57.8,29.12,ESE,112,4.0,5.0,61,0.00,,---,0.00,0.00,VWS V14.01,2013-07-24 18:51:00,
2013-07-24 14:56:00,72.0,57.4,29.12,SE,135,0.0,5.0,60,0.00,,---,0.00,0.00,VWS V14.01,2013-07-24 18:56:00,
2013-07-24 15:01:00,73.0,58.3,29.12,SE,135,0.0,5.0,60,0.00,,---,0.00,0.00,VWS V14.01,2013-07-24 19:01:00,
2013-07-24 15:06:00,73.0,55.9,29.12,ESE,112,3.0,3.0,55,0.00,,---,0.00,0.00,VWS V14.01,2013-07-24 19:06:00,
2013-07-24 15:11:00,73.0,56.9,29.12,NW,315,2.0,4.0,57,0.00,,---,0.00,0.00,VWS V14.01,2013-07-24 19:11:00,
2013-07-24 15:16:00,74.0,57.8,29.12,NW,315,2.0,5.0,57,0.00,,---,0.00,0.00,VWS V14.01,2013-07-24 19:16:00,
2013-07-24 15:21:00,73.0,57.4,29.11,SW,225,0.0,0.0,58,0.00,,---,0.00,0.00,VWS V14.01,2013-07-24 19:21:00,
2013-07-24 15:26:00,73.0,57.4,29.11,WNW,292,5.0,8.0,58,0.00,,---,0.00,0.00,VWS V14.01,2013-07-24 19:26:00,
2013-07-24 15:32:00,73.0,57.4,29.11,WNW,292,0.0,4.0,58,0.00,,---,0.00,0.00,VWS V14.01,2013-07-24 19:32:00,
2013-07-24 15:37:00,72.0,55.5,29.11,ESE,112,1.0,7.0,56,0.00,,---,0.00,0.00,VWS V14.01,2013-07-24 19:37:00,
2013-07-24 15:42:00,73.0,56.4,29.11,East,90,3.0,4.0,56,0.00,,---,0.00,0.00,VWS V14.01,2013-07-24 19:42:00,
2013-07-24 15:47:00,74.0,56.8,29.11,NW,315,2.0,7.0,55,0.00,,---,0.00,0.00,VWS V14.01,2013-07-24 19:47:00,
2013-07-24 15:52:00,74.0,56.8,29.11,North,360,0.0,3.0,55,0.00,,---,0.00,0.00,VWS V14.01,2013-07-24 19:52:00,
2013-07-24 15:57:00,74.0,57.3,29.11,East,90,2.0,5.0,56,0.00,,---,0.00,0.00,VWS V14.01,2013-07-24 19:57:00,
2013-07-24 16:02:00,74.0,56.8,29.11,SE,135,6.0,7.0,55,0.00,,---,0.00,0.00,VWS V14.01,2013-07-24 20:02:00,
2013-07-24 16:07:00,74.0,56.8,29.11,WNW,292,4.0,8.0,55,0.00,,---,0.00,0.00,VWS V14.01,2013-07-24 20:07:00,
2013-07-24 16:12:00,73.0,56.9,29.11,NE,45,2.0,4.0,57,0.00,,---,0.00,0.00,VWS V14.01,2013-07-24 20:12:00,
2013-07-24 16:17:00,74.0,56.8,29.11,WNW,292,5.0,5.0,55,0.00,,---,0.00,0.00,VWS V14.01,2013-07-24 20:17:00,
2013-07-24 16:22:00,73.0,56.4,29.11,East,90,5.0,10.0,56,0.00,,---,0.00,0.00,VWS V14.01,2013-07-24 20:22:00,
2013-07-24 16:28:00,74.0,57.8,29.10,NW,315,4.0,5.0,57,0.00,,---,0.00,0.00,VWS V14.01,2013-07-24 20:28:00,
2013-07-24 16:33:00,74.0,56.8,29.10,SE,135,0.0,4.0,55,0.00,,---,0.00,0.00,VWS V14.01,2013-07-24 20:33:00,
2013-07-24 16:38:00,74.0,58.3,29.11,East,90,1.0,3.0,58,0.00,,---,0.00,0.00,VWS V14.01,2013-07-24 20:38:00,
2013-07-24 16:43:00,75.0,56.7,29.11,ESE,112,0.0,6.0,53,0.00,,---,0.00,0.00,VWS V14.01,2013-07-24 20:43:00,
2013-07-24 16:48:00,75.0,56.2,29.10,East,90,0.0,4.0,52,0.00,,---,0.00,0.00,VWS V14.01,2013-07-24 20:48:00,
2013-07-24 16:53:00,73.0,55.9,29.10,SW,225,0.0,3.0,55,0.00,,---,0.00,0.00,VWS V14.01,2013-07-24 20:53:00,
2013-07-24 16:58:00,74.0,57.3,29.10,South,180,0.0,5.0,56,0.00,,---,0.00,0.00,VWS V14.01,2013-07-24 20:58:00,
2013-07-24 17:03:00,74.0,56.3,29.10,NNE,22,1.0,5.0,54,0.00,,---,0.00,0.00,VWS V14.01,2013-07-24 21:03:00,
2013-07-24 17:08:00,74.0,56.8,29.09,ENE,67,1.0,6.0,55,0.00,,---,0.00,0.00,VWS V14.01,2013-07-24 21:08:00,
2013-07-24 17:13:00,74.0,56.8,29.09,East,90,0.0,4.0,55,0.00,,---,0.00,0.00,VWS V14.01,2013-07-24 21:13:00,
2013-07-24 17:18:00,74.0,57.8,29.09,West,270,2.0,3.0,57,0.00,,---,0.00,0.00,VWS V14.01,2013-07-24 21:18:00,
2013-07-24 17:23:00,74.0,56.3,29.09,ENE,67,5.0,5.0,54,0.00,,---,0.00,0.00,VWS V14.01,2013-07-24 21:23:00,
2013-07-24 17:28:00,74.0,55.8,29.09,West,270,2.0,5.0,53,0.00,,---,0.00,0.00,VWS V14.01,2013-07-24 21:28:00,
2013-07-24 17:33:00,74.0,56.8,29.09,SE,135,0.0,11.0,55,0.00,,---,0.00,0.00,VWS V14.01,2013-07-24 21:33:00,
2013-07-24 17:38:00,74.0,57.3,29.09,West,270,0.0,4.0,56,0.00,,---,0.00,0.00,VWS V14.01,2013-07-24 21:38:00,
2013-07-24 17:43:00,73.0,57.4,29.09,SSE,157,0.0,4.0,58,0.00,,---,0.00,0.00,VWS V14.01,2013-07-24 21:43:00,
2013-07-24 17:48:00,74.0,56.8,29.09,NE,45,1.0,5.0,55,0.00,,---,0.00,0.00,VWS V14.01,2013-07-24 21:48:00,
2013-07-24 17:53:00,74.0,57.3,29.09,SE,135,0.0,4.0,56,0.00,,---,0.00,0.00,VWS V14.01,2013-07-24 21:53:00,
2013-07-24 17:58:00,75.0,56.7,29.09,East,90,0.0,3.0,53,0.00,,---,0.00,0.00,VWS V14.01,2013-07-24 21:58:00,
2013-07-24 18:03:00,75.0,56.7,29.09,WNW,292,3.0,4.0,53,0.00,,---,0.00,0.00,VWS V14.01,2013-07-24 22:03:00,
2013-07-24 18:08:00,75.0,56.7,29.09,East,90,0.0,5.0,53,0.00,,---,0.00,0.00,VWS V14.01,2013-07-24 22:08:00,
2013-07-24 18:13:00,73.0,56.4,29.09,ENE,67,0.0,2.0,56,0.00,,---,0.00,0.00,VWS V14.01,2013-07-24 22:13:00,
2013-07-24 18:18:00,74.0,57.3,29.09,East,90,0.0,0.0,56,0.00,,---,0.00,0.00,VWS V14.01,2013-07-24 22:18:00,
2013-07-24 18:23:00,75.0,56.2,29.09,East,90,5.0,6.0,52,0.00,,---,0.00,0.00,VWS V14.01,2013-07-24 22:23:00,
2013-07-24 18:28:00,75.0,57.8,29.09,East,90,2.0,2.0,55,0.00,,---,0.00,0.00,VWS V14.01,2013-07-24 22:28:00,
2013-07-24 18:33:00,74.0,56.8,29.09,SE,135,3.0,3.0,55,0.00,,---,0.00,0.00,VWS V14.01,2013-07-24 22:33:00,
2013-07-24 18:38:00,73.0,56.4,29.09,East,90,2.0,3.0,56,0.00,,---,0.00,0.00,VWS V14.01,2013-07-24 22:38:00,
2013-07-24 18:43:00,73.0,55.9,29.09,East,90,0.0,2.0,55,0.00,,---,0.00,0.00,VWS V14.01,2013-07-24 22:43:00,
2013-07-24 18:48:00,73.0,55.9,29.10,NE,45,0.0,0.0,55,0.00,,---,0.00,0.00,VWS V14.01,2013-07-24 22:48:00,
2013-07-24 18:53:00,73.0,56.4,29.10,ENE,67,0.0,3.0,56,0.00,,---,0.00,0.00,VWS V14.01,2013-07-24 22:53:00,
2013-07-24 18:58:00,72.0,56.4,29.11,East,90,0.0,0.0,58,0.00,,---,0.00,0.00,VWS V14.01,2013-07-24 22:58:00,
2013-07-24 19:03:00,70.0,56.4,29.11,East,90,0.0,0.0,62,0.00,,---,0.00,0.00,VWS V14.01,2013-07-24 23:03:00,
2013-07-24 19:08:00,69.0,56.8,29.12,NW,315,0.0,0.0,65,0.00,,---,0.00,0.00,VWS V14.01,2013-07-24 23:08:00,
2013-07-24 19:13:00,68.0,57.9,29.12,NW,315,0.0,0.0,70,0.00,,---,0.00,0.00,VWS V14.01,2013-07-24 23:13:00,
2013-07-24 19:18:00,67.0,55.7,29.13,NW,315,0.0,0.0,67,0.00,,---,0.00,0.00,VWS V14.01,2013-07-24 23:18:00,
2013-07-24 19:23:00,68.0,56.2,29.13,East,90,2.0,3.0,66,0.00,,---,0.00,0.00,VWS V14.01,2013-07-24 23:23:00,
2013-07-24 19:28:00,68.0,55.8,29.14,East,90,0.0,2.0,65,0.00,,---,0.00,0.00,VWS V14.01,2013-07-24 23:28:00,
2013-07-24 19:33:00,68.0,57.1,29.14,East,90,0.0,0.0,68,0.00,,---,0.00,0.00,VWS V14.01,2013-07-24 23:33:00,
2013-07-24 19:38:00,67.0,56.5,29.14,East,90,0.0,0.0,69,0.00,,---,0.00,0.00,VWS V14.01,2013-07-24 23:38:00,
2013-07-24 19:43:00,67.0,57.7,29.14,NW,315,0.0,0.0,72,0.00,,---,0.00,0.00,VWS V14.01,2013-07-24 23:43:00,
2013-07-24 19:48:00,66.0,56.7,29.15,WNW,292,0.0,0.0,72,0.00,,---,0.00,0.00,VWS V14.01,2013-07-24 23:48:00,
2013-07-24 19:53:00,66.0,57.5,29.15,NW,315,0.0,0.0,74,0.00,,---,0.00,0.00,VWS V14.01,2013-07-24 23:53:00,
2013-07-24 19:59:00,66.0,57.5,29.15,NW,315,0.0,0.0,74,0.00,,---,0.00,0.00,VWS V14.01,2013-07-24 23:59:00,
2013-07-24 20:04:00,65.0,56.5,29.15,NW,315,0.0,0.0,74,0.00,,---,0.00,0.00,VWS V14.01,2013-07-25 00:04:00,
2013-07-24 20:09:00,65.0,56.5,29.16,NW,315,0.0,0.0,74,0.00,,---,0.00,0.00,VWS V14.01,2013-07-25 00:09:00,
2013-07-24 20:14:00,65.0,56.9,29.16,NW,315,0.0,0.0,75,0.00,,---,0.00,0.00,VWS V14.01,2013-07-25 00:14:00,
2013-07-24 20:19:00,65.0,57.3,29.16,NW,315,0.0,0.0,76,0.00,,---,0.00,0.00,VWS V14.01,2013-07-25 00:19:00,
2013-07-24 20:24:00,64.0,57.4,29.16,NW,315,0.0,0.0,79,0.00,,---,0.00,0.00,VWS V14.01,2013-07-25 00:24:00,
2013-07-24 20:29:00,64.0,57.4,29.17,NW,315,0.0,0.0,79,0.00,,---,0.00,0.00,VWS V14.01,2013-07-25 00:29:00,
2013-07-24 20:34:00,64.0,58.1,29.17,NW,315,0.0,0.0,81,0.00,,---,0.00,0.00,VWS V14.01,2013-07-25 00:34:00,
2013-07-24 20:39:00,63.0,58.1,29.17,NW,315,0.0,0.0,84,0.00,,---,0.00,0.00,VWS V14.01,2013-07-25 00:39:00,
2013-07-24 20:44:00,63.0,57.8,29.17,NW,315,0.0,0.0,83,0.00,,---,0.00,0.00,VWS V14.01,2013-07-25 00:44:00,
2013-07-24 20:49:00,62.0,57.1,29.18,NW,315,0.0,0.0,84,0.00,,---,0.00,0.00,VWS V14.01,2013-07-25 00:49:00,
2013-07-24 20:54:00,62.0,56.8,29.18,NW,315,0.0,0.0,83,0.00,,---,0.00,0.00,VWS V14.01,2013-07-25 00:54:00,
2013-07-24 20:59:00,61.0,57.7,29.18,NW,315,0.0,0.0,89,0.00,,---,0.00,0.00,VWS V14.01,2013-07-25 00:59:00,
2013-07-24 21:04:00,61.0,58.0,29.18,NW,315,0.0,0.0,90,0.00,,---,0.00,0.00,VWS V14.01,2013-07-25 01:04:00,
2013-07-24 21:09:00,61.0,57.4,29.18,NW,315,0.0,0.0,88,0.00,,---,0.00,0.00,VWS V14.01,2013-07-25 01:09:00,
2013-07-24 21:14:00,61.0,57.7,29.18,South,180,0.0,0.0,89,0.00,,---,0.00,0.00,VWS V14.01,2013-07-25 01:14:00,
2013-07-24 21:19:00,60.0,57.1,29.19,South,180,0.0,0.0,90,0.00,,---,0.00,0.00,VWS V14.01,2013-07-25 01:19:00,
2013-07-24 21:24:00,60.0,57.7,29.19,South,180,0.0,0.0,92,0.00,,---,0.00,0.00,VWS V14.01,2013-07-25 01:24:00,
2013-07-24 21:29:00,60.0,58.0,29.19,South,180,0.0,0.0,93,0.00,,---,0.00,0.00,VWS V14.01,2013-07-25 01:29:00,
2013-07-24 21:34:00,60.0,58.6,29.19,South,180,0.0,0.0,95,0.00,,---,0.00,0.00,VWS V14.01,2013-07-25 01:34:00,
2013-07-24 21:39:00,60.0,57.7,29.19,South,180,0.0,0.0,92,0.00,,---,0.00,0.00,VWS V14.01,2013-07-25 01:39:00,
2013-07-24 21:44:00,60.0,58.6,29.19,South,180,0.0,0.0,95,0.00,,---,0.00,0.00,VWS V14.01,2013-07-25 01:44:00,
2013-07-24 21:50:00,59.0,58.2,29.19,South,180,0.0,0.0,97,0.00,,---,0.00,0.00,VWS V14.01,2013-07-25 01:50:00,
2013-07-24 21:55:00,59.0,58.4,29.19,South,180,0.0,0.0,98,0.00,,---,0.00,0.00,VWS V14.01,2013-07-25 01:55:00,
2013-07-24 22:00:00,59.0,58.2,29.21,South,180,0.0,0.0,97,0.00,,---,0.00,0.00,VWS V14.01,2013-07-25 02:00:00,
2013-07-24 22:05:00,59.0,57.6,29.21,South,180,0.0,0.0,95,0.00,,---,0.00,0.00,VWS V14.01,2013-07-25 02:05:00,
2013-07-24 22:10:00,58.0,57.4,29.21,South,180,0.0,0.0,98,0.00,,---,0.00,0.00,VWS V14.01,2013-07-25 02:10:00,
2013-07-24 22:15:00,58.0,58.0,29.21,South,180,0.0,0.0,100,0.00,,---,0.00,0.00,VWS V14.01,2013-07-25 02:15:00,
2013-07-24 22:20:00,58.0,58.0,29.21,South,180,0.0,0.0,100,0.00,,---,0.00,0.00,VWS V14.01,2013-07-25 02:20:00,
2013-07-24 22:25:00,58.0,58.0,29.21,South,180,0.0,0.0,100,0.00,,---,0.00,0.00,VWS V14.01,2013-07-25 02:25:00,
2013-07-24 22:30:00,58.0,58.0,29.21,South,180,0.0,0.0,100,0.00,,---,0.00,0.00,VWS V14.01,2013-07-25 02:30:00,
2013-07-24 22:35:00,58.0,58.0,29.21,South,180,0.0,0.0,100,0.00,,---,0.00,0.00,VWS V14.01,2013-07-25 02:35:00,
2013-07-24 22:40:00,58.0,58.0,29.21,South,180,0.0,0.0,100,0.00,,---,0.00,0.00,VWS V14.01,2013-07-25 02:40:00,
2013-07-24 22:45:00,58.0,58.0,29.21,South,180,0.0,0.0,100,0.00,,---,0.00,0.00,VWS V14.01,2013-07-25 02:45:00,
2013-07-24 22:50:00,57.0,57.0,29.21,South,180,0.0,0.0,100,0.00,,---,0.00,0.00,VWS V14.01,2013-07-25 02:50:00,
2013-07-24 22:55:00,57.0,57.0,29.21,South,180,0.0,0.0,100,0.00,,---,0.00,0.00,VWS V14.01,2013-07-25 02:55:00,
2013-07-24 23:00:00,57.0,57.0,29.22,South,180,0.0,0.0,100,0.00,,---,0.00,0.00,VWS V14.01,2013-07-25 03:00:00,
2013-07-24 23:05:00,57.0,57.0,29.22,South,180,0.0,0.0,100,0.00,,---,0.00,0.00,VWS V14.01,2013-07-25 03:05:00,
2013-07-24 23:10:00,57.0,57.0,29.22,South,180,0.0,0.0,100,0.00,,---,0.00,0.00,VWS V14.01,2013-07-25 03:10:00,
2013-07-24 23:15:00,57.0,57.0,29.22,South,180,0.0,0.0,100,0.00,,---,0.00,0.00,VWS V14.01,2013-07-25 03:15:00,
2013-07-24 23:20:00,56.0,56.0,29.22,South,180,0.0,0.0,100,0.00,,---,0.00,0.00,VWS V14.01,2013-07-25 03:20:00,
2013-07-24 23:25:00,56.0,56.0,29.22,South,180,0.0,0.0,100,0.00,,---,0.00,0.00,VWS V14.01,2013-07-25 03:25:00,
2013-07-24 23:30:00,56.0,56.0,29.23,South,180,0.0,0.0,100,0.00,,---,0.00,0.00,VWS V14.01,2013-07-25 03:30:00,
2013-07-24 23:35:00,56.0,56.0,29.23,South,180,0.0,0.0,100,0.00,,---,0.00,0.00,VWS V14.01,2013-07-25 03:35:00,
2013-07-24 23:40:00,56.0,56.0,29.23,South,180,0.0,0.0,100,0.00,,---,0.00,0.00,VWS V14.01,2013-07-25 03:40:00,
2013-07-24 23:45:00,56.0,56.0,29.23,South,180,0.0,0.0,100,0.00,,---,0.00,0.00,VWS V14.01,2013-07-25 03:45:00,
2013-07-24 23:50:00,56.0,56.0,29.23,South,180,0.0,0.0,100,0.00,,---,0.00,0.00,VWS V14.01,2013-07-25 03:50:00,
2013-07-24 23:55:00,55.0,55.0,29.23,South,180,0.0,0.0,100,0.00,,---,0.00,0.00,VWS V14.01,2013-07-25 03:55:00,